Regional Weather Roundup
Issued by NWS

Home | Current Version | Previous Version | Graphics & Text | Print | Product List | Glossary On
Versions: 1 2 3 4 5 6 7 8 9 10 11 12 13 14 15 16 17 18 19 20 21 22 23 24 25 26 27 28 29 30 31 32 33 34 35 36 37 38 39 40 41 42 43 44 45 46 47 48 49 50
000
ASUS43 KMKX 201600
RWRWI

WISCONSIN REGIONAL WEATHER ROUNDUP
NATIONAL WEATHER SERVICE MILWAUKEE/SULLIVAN WI
1100 AM CDT SUN MAY 20 2018

NOTE: "FAIR" INDICATES FEW OR NO CLOUDS BELOW 12,000 FEET WITH NO
SIGNIFICANT WEATHER AND/OR OBSTRUCTIONS TO VISIBILITY.

WIZ001-002-006>008-014>016-023>028-201700-
NORTHWEST WISCONSIN

CITY           SKY/WX    TMP DP  RH WIND       PRES   REMARKS
SUPERIOR ARPT  FAIR      56  36  45 NW3       30.30S
ASHLAND        FAIR      59  30  33 VRB3      30.29F
HAYWARD        FAIR      60  25  26 E8        30.28S
SIREN          FAIR      58  24  27 NE7       30.27S
CUMBERLAND     FAIR      55  25  30 E7        30.26F
RICE LAKE      FAIR      58  22  24 E7        30.28S
CHETEK         FAIR      56  31  39 E7G16     30.26F
LADYSMITH      FAIR      58  27  31 E8        30.28S
EAU CLAIRE     NOT AVBL
MENOMONIE      FAIR      58  35  41 NE9       30.25S
NEW RICHMOND   FAIR      57  27  31 E8        30.25F
OSCEOLA        FAIR      60  25  26 E12       30.28F
$$

WIZ003>005-009-010-017-018-201700-
NORTH CENTRAL WISCONSIN

CITY           SKY/WX    TMP DP  RH WIND       PRES   REMARKS
MANITOWISH WTR FAIR      56  28  34 SE3       30.26S
ARBOR VITAE    FAIR      58  26  30 E6        30.25F
WOODRUFF       FAIR      58  26  30 E6        30.25F
RHINELANDER    FAIR      57  29  34 E6        30.27R
EAGLE RIVER    FAIR      57  24  28 SE6       30.25S
LAND O LAKES   FAIR      56  26  31 E3        30.28R
PHILLIPS       FAIR      56  29  35 E6        30.26S
TOMAHAWK       FAIR      55  28  36 E6        30.27S
MEDFORD        FAIR      54  29  37 NE12      30.25S
MERRILL        FAIR      58  31  35 E10       30.26S
$$

WIZ029-030-035-036-043>047-201700-
CENTRAL WISCONSIN

CITY           SKY/WX    TMP DP  RH WIND       PRES   REMARKS
WAUSAU         FAIR      57  32  38 NE5       30.23F
MOSINEE        PTSUNNY   54  37  54 E8        30.26S
MARSHFIELD     FAIR      57  40  52 E5        30.24R
STEVENS POINT  NOT AVBL
WAUPACA        FAIR      57  41  55 NE8       30.26R
WAUTOMA        CLOUDY    51  44  77 E6        30.27R
WISC RAPIDS    FAIR      58  40  51 VRB6      30.25S
CAMP DOUGLAS   NOT AVBL
$$

WIZ011>013-019>022-031-037>040-048>050-201700-
NORTHEAST WISCONSIN

CITY           SKY/WX    TMP DP  RH WIND       PRES   REMARKS
ANTIGO         FAIR      54  28  36 E5        30.26S
SHAWANO        FAIR      56  36  46 CALM      30.27R
OCONTO         FAIR      51  39  63 E5        30.26S
STURGEON BAY   FAIR      49  38  65 N9        30.27R
GREEN BAY      FAIR      52  40  63 NE10      30.27R
MANITOWOC      FAIR      49  39  68 VRB7      30.27R
APPLETON       PTSUNNY   54  37  54 NE6       30.25R
CLINTONVILLE   FAIR      56  37  49 NE9       30.26S
OSHKOSH        CLOUDY    50  44  80 NE6       30.25R
$$

WIZ032>034-041-042-053>061-201700-
SOUTHWEST WISCONSIN

CITY           SKY/WX    TMP DP  RH WIND       PRES   REMARKS
LA CROSSE      LGT RAIN  50  48  93 NE5       30.24R FOG
SPARTA         CLOUDY    49  46  87 NE6       30.24S
VIROQUA        CLOUDY    49  47  95 NE8       30.22R
BOSCOBEL       CLOUDY    53  48  83 NE6       30.22R
PRAIRIE DU CHI CLOUDY    53  49  87 E8        30.19S
PLATTEVILLE    CLOUDY    52  52 100 E13       30.19S
$$

WIZ056-057-062-063-064-067-068-201700-
SOUTH CENTRAL WISCONSIN

CITY           SKY/WX    TMP DP  RH WIND       PRES   REMARKS
REEDSBURG      CLOUDY    50  44  80 E8        30.23S
BARABOO/DELLS  CLOUDY    49  43  79 NE8       30.24R
LONE ROCK      CLOUDY    52  49  89 NE13      30.21S
MINERAL POINT  LGT RAIN  50  50 100 E13       30.19F
MADISON        CLOUDY    50  46  86 E10       30.22R
MIDDLETON      CLOUDY    51  48  89 NE10      30.22S
WATERTOWN      DRIZZLE   48  47  97 NE5       30.23S
MONROE         CLOUDY    48  46  93 NE13      30.20R
JANESVILLE     LGT RAIN  48  48 100 E10       30.23R
$$

WIZ051-052-058>065-066-070>072-201700-
SOUTHEAST WISCONSIN

CITY           SKY/WX    TMP DP  RH WIND       PRES   REMARKS
MILWAUKEE      RAIN      43  40  89 N16G26    30.25R FOG
WAUKESHA       LGT RAIN  43  39  87 NE7G16    30.25R
MILWAUKEE/TIMM LGT RAIN  43  37  81 NE12G17   30.26S
RACINE         LGT RAIN  42  40  92 N15       30.26R
BURLINGTON     RAIN      43  41  91 E9        30.24R
KENOSHA        LGT RAIN  43  40  89 N10       30.25R
FOND DU LAC    CLOUDY    50  43  77 NE9       30.25R
SHEBOYGAN      CLOUDY    48  41  76 NE10      30.26R
WEST BEND      CLOUDY    45  41  87 NE12      30.25S
JUNEAU         CLOUDY    48  43  84 NE6       30.24F
$$

LSZ147-162-201700-
LAKE SUPERIOR

STATION/POSITION TIME  TEMP    WIND        PRES    WAVE
                       AIR SEA DIR/SP/G            HT/PER
                 (UTC) (F)     (DEG/KT/KT) (MB)    (FT/S)
W MID LAKE BUOY  1450   38 36  250/  6/  6 1026.4R   1/ 6
DEVILS ISLAND    1500   44     280/  2/  6 1026.7R
SAXON HARBOR     1540   44      40/  4/  4 1025.4S
$$

LMZ867-665-643>646-201700-
LAKE MICHIGAN

STATION/POSITION TIME  TEMP    WIND        PRES    WAVE
                       AIR SEA DIR/SP/G            HT/PER
                 (UTC) (F)     (DEG/KT/KT) (MB)    (FT/S)
NORTHPORT PIER   1540   44                 1024.7R
KEWAUNEE LAKESHO 1530   45      50/  6/  8 1024.1R
SHEBOYGAN LAKESH 1500   42      10/ 18/ 21 1024.6R
PORT WASHINGTON  1540   46      30/ 11/ 16 1025.4R
MILWAUKEE LAKESH 1530   42      20/ 16/ 19   N/A
KENOSHA   LAKESH 1500   42                 1023.7
$$

TC  - TEMPERATURE IN CELSIUS
VSB - VISIBILITY IN STATUTE MILES
WCI - WIND CHILL INDEX
HX  - HEAT INDEX





USA.gov is the U.S. government's official web portal to all federal, state and local government web resources and services.